Location: Unspecified
(0.0000°N, 0.0000°E)
Time: 18:30:15
(UTC+00:00)

STARLINK 1062 - Pass Details

Date: 17 January 2020
Orbit: 548 x 551 km, 53.0° (Epoch: 17 January)

Event Time Altitude Azimuth Distance (km) Brightness Sun altitude
Rises 19:04:53 0° 308° (NW) 2,701 7.6 -12.8°
Reaches altitude 10° 19:07:19 10° 296° (WNW) 1,811 6.9 -13.4°
Maximum altitude 19:10:54 29° 236° (SW) 1,026 5.8 -14.2°
Drops below altitude 10° 19:14:30 10° 175° (S) 1,819 6.5 -15.0°
Sets 19:16:57 0° 163° (SSE) 2,715 7.2 -15.6°
